This demonstration page uses our WeatherBlox Daily Observations layout. Learn more.

Left ArrowRight Arrow

36.17497, -115.13722

Hourly Observations for February 12, 2020

Temp ( °F °C ) Dew Point ( °F °C ) Humidity (%) Winds ( mph kmh ) Pressure ( in mb ) Visibility ( mi km ) Precip ( " mm )
12:53 am 00:53 Clear 44 6.7 8 -13.3 23 23 WNW 7 11 30.07 1018 10 16.0934 0 0
1:53 am 01:53 Clear 44 6.7 6 -14.4 21 21 WNW 7 11 30.07 1018 10 16.0934 0 0
2:53 am 02:53 Clear 43 6.1 7 -13.9 22 22 Calm 30.06 1018 10 16.0934 0 0
3:53 am 03:53 Clear 40 4.4 9 -12.8 28 28 WNW 5 7 30.06 1018 10 16.0934 0 0
4:53 am 04:53 Clear 39 3.9 9 -12.8 29 29 NW 6 9 30.07 1018 10 16.0934 0 0
5:53 am 05:53 Clear 39 3.9 9 -12.8 29 29 NNW 5 7 30.09 1019 10 16.0934 0 0
6:53 am 06:53 Sunny 39 3.9 10 -12.2 30 30 WNW 5 7 30.1 1019 10 16.0934 0 0
7:53 am 07:53 Sunny 43 6.1 12 -11.1 28 28 Calm 30.11 1020 10 16.0934 0 0
8:53 am 08:53 Sunny 48 8.9 13 -10.6 24 24 Calm 30.13 1020 10 16.0934 0 0
9:53 am 09:53 Sunny 52 11.1 10 -12.2 18 18 Calm 30.14 1021 10 16.0934 0 0
10:53 am 10:53 Sunny 55 12.8 12 -11.1 18 18 VRB 6 9 30.14 1021 10 16.0934 0 0
11:53 am 11:53 Sunny 57 13.9 13 -10.6 17 17 S 5 7 30.12 1020 10 16.0934 0 0
12:53 pm 12:53 Sunny 59 15 13 -10.6 16 16 VRB 5 7 30.08 1019 10 16.0934 0 0
1:53 pm 13:53 Sunny 61 16.1 14 -10 16 16 VRB 6 9 30.05 1018 10 16.0934 0 0
2:53 pm 14:53 Sunny 62 16.7 14 -10 15 15 Calm 30.04 1017 10 16.0934 0 0
3:53 pm 15:53 Sunny 62 16.7 14 -10 15 15 E 3 6 30.05 1018 10 16.0934 0 0
4:53 pm 16:53 Sunny 60 15.6 15 -9.4 17 17 E 6 9 30.05 1018 10 16.0934 0 0
5:53 pm 17:53 Clear 57 13.9 15 -9.4 19 19 ESE 3 6 30.07 1018 10 16.0934 0 0
6:53 pm 18:53 Clear 56 13.3 16 -8.9 21 21 Calm 30.08 1019 10 16.0934 0 0
8:53 pm 20:53 Clear 50 10 18 -7.8 28 28 NW 6 9 30.1 1019 10 16.0934 0 0
9:53 pm 21:53 Clear 47 8.3 19 -7.2 33 33 NW 5 7 30.1 1019 10 16.0934 0 0
10:53 pm 22:53 Clear 45 7.2 18 -7.8 34 34 NW 3 6 30.11 1020 10 16.0934 0 0
11:53 pm 23:53 Clear 44 6.7 19 -7.2 37 37 NNW 7 11 30.11 1020 10 16.0934 0 0

Powered by AerisWeather